Location: Newark
(13.8117°N, 3.6025°W)
Time: 01:27:21
(UTC+00:00)

Explorer 11/Cluster Stage 4 - Pass Details

Date: 25 August 2019
Orbit: 467 x 1259 km, 28.8° (Epoch: 22 October)

Event Time Altitude Azimuth Distance (km) Brightness Sun altitude
Rises 09:06:08 0° 264° (W) 3,757 9.6 43.4°
Reaches altitude 10° 09:08:50 10° 271° (W) 2,910 9.2 44.1°
Maximum altitude 09:15:49 45° 342° (NNW) 1,582 8.5 45.8°
Drops below altitude 10° 09:23:35 10° 52° (NE) 3,226 10.4 47.7°
Sets 09:26:44 0° 58° (ENE) 4,197 10.8 48.4°
